Home > Weather > Santiago de Cuba > Past weeks

Flag for Cuba Past Weather in Santiago de Cuba, Cuba — Yesterday and Last 2 Weeks

Now
88 °F

Scattered clouds.


Feels Like: 96 °F
Forecast: 76 / 89 °F
Wind: 9 mph from Southeast

Location: Santiago De Cuba - Oriente

Current Time: Jul 27, 2016 at 1:19:18 PM

Latest Report: Jul 27, 2016 at 12:50 PM


Visibility: N/A

Pressure: 29.98 "Hg

Humidity: 62%

Dew Point: 73 °F

Location of Santiago de CubaLocation

Past Weather in Santiago de Cuba — Graph

°F

Santiago de Cuba Temperature Yesterday

Maximum temperature yesterday: 86 °F (at 9:52 AM)
Minimum temperature yesterday: 75 °F (at 2:50 AM)
Average temperature yesterday: 79 °F

High & Low Weather Summary for the Past Weeks

 TemperatureHumidityPressure
High90 °F (Jul 12, 12:50 PM)100% (Jul 20, 2:51 AM)30.07 "Hg (Jul 20, 2:51 AM)
Low75 °F (Jul 13, 10:50 PM)46% (Jul 19, 10:51 AM)29.95 "Hg (Jul 15, 4:51 PM)
Average81 °F74%30.01 "Hg
* Reported Jul 12 11:50 AM — Jul 27 11:50 AM, Santiago de Cuba, Weather by CustomWeather, © 2016

Note: Actual official high and low records may vary slightly from our data, if they occured in-between our weather recording intervals... More about our weather records

Advertising

Santiago de Cuba Weather History for the Previous 24 Hours

Scroll right to see more
 ConditionsComfort  
Time TempWeatherWind HumidityBarometerVisibility
11:50 AM
Wed, Jul 27
86 °FScattered clouds.9 mph62%30.01 "HgN/A
10:50 AM88 °FScattered clouds.3 mph55%30.01 "HgN/A
9:50 AM86 °FPassing clouds.3 mph59%30.01 "HgN/A
8:50 AM82 °FPassing clouds.5 mph70%30.01 "HgN/A
7:51 AM79 °FPassing clouds.6 mph79%29.98 "HgN/A
6:50 AM75 °FPassing clouds.7 mph89%29.98 "HgN/A
5:51 AM75 °FPassing clouds.6 mph89%29.95 "HgN/A
4:51 AM75 °FPassing clouds.6 mph83%29.95 "Hg6 mi
3:51 AM75 °FPassing clouds.6 mph83%29.95 "Hg6 mi
2:50 AM75 °FPassing clouds.6 mph89%29.95 "Hg6 mi
1:51 AM77 °FPassing clouds.7 mph83%29.98 "Hg6 mi
12:50 AM75 °FPassing clouds.7 mph94%29.98 "Hg6 mi
11:51 PM
Tue, Jul 26
77 °FPassing clouds.6 mph89%29.98 "Hg6 mi
10:50 PM77 °FPassing clouds.6 mph89%30.01 "Hg6 mi
9:50 PM77 °FPassing clouds.5 mph89%30.01 "Hg6 mi
8:50 PM77 °FPassing clouds.5 mph89%29.98 "Hg6 mi
7:50 PM77 °FScattered clouds.3 mph89%29.98 "Hg6 mi
6:50 PM79 °FScattered clouds.5 mph84%29.95 "Hg6 mi
5:52 PM79 °FScattered clouds.5 mph89%29.95 "Hg6 mi
4:50 PM77 °FScattered clouds.3 mph94%29.95 "Hg6 mi
3:52 PM77 °FLight rain. Scattered clouds.8 mph83%N/A4 mi
2:51 PM86 °FScattered showers. Scattered clouds.8 mph62%29.98 "Hg6 mi
1:52 PM86 °FBroken clouds.8 mph62%29.98 "Hg6 mi
Weather by CustomWeather, © 2016

See weather overviewHow to use our weather pages